Regional Weather Roundup
Issued by NWS Sterling, VA

Home | Current Version | Previous Version | Text Only | Print | Product List | Glossary On
Versions: 1 2 3 4 5 6 7 8 9 10 11 12 13 14 15 16 17 18 19 20 21 22 23 24 25 26 27 28 29 30 31 32 33 34 35 36 37 38 39 40 41 42 43 44 45 46 47
000
ASUS41 KLWX 271610
RWRLWX

REGIONAL WEATHER ROUNDUP
NATIONAL WEATHER SERVICE BALTIMORE MD/WASHINGTON DC
1100 AM EST FRI FEB 27 2015

Note: "FAIR" indicates few or no clouds below 12,000 feet
with no significant weather and/or obstructions to visibility.
 TC=TEMPERATURE CELSIUS

 * =Non NWS site. Station does not report precipitation (e.g. rain,
    snow, etc.), thunder, or fog.

DCZ001-MDZ009-015-VAZ040>042-051-053>054-271700-
WASHINGTON METRO

CITY           SKY/WX    TMP DP  RH WIND       PRES   REMARKS
WASHINGTON NAT PTSUNNY   34  12  40 NW10      30.43S WCI  26
DULLES         MOSUNNY   26   8  46 N10       30.43R WCI  16
ANDREWS AFB    MOSUNNY   31  14  48 NW12      30.40R WCI  22
FT BELVOIR     CLOUDY    30  10  42 NW15      30.44R WCI  19
QUANTICO       PTSUNNY   31  11  43 N17G24    30.45R WCI  19
COLLEGE PARK*  MOSUNNY   30  18  59 N9        30.42R WCI  22
LEESBURG*      SUNNY     28  14  54 N12G17    30.44R WCI  18
MANASSAS*      MOSUNNY   30  16  55 N10G22    30.43  WCI  21
GAITHERSBURG*  MOSUNNY   28  12  50 NW5       30.44S

$$

MDZ006>007-011-014-271700-
BALTIMORE METRO

CITY           SKY/WX    TMP DP  RH WIND       PRES   REMARKS
BWI AIRPORT    PTSUNNY   28  16  60 NW9       30.42R WCI  19
MD SCIENCE CTR   N/A     27  14  58 MISG      30.43R
MARTIN STATE   PTSUNNY   28  18  64 NW9       30.44R WCI  20
ANNAPOLIS      CLOUDY    28  21  75 N8        30.42R HAZE    WCI  20
FORT MEADE*    CLOUDY    30  18  59 N7        30.44R

$$

MDZ012-015-019>023-271700-
MARYLAND EASTERN SHORE

CITY           SKY/WX    TMP DP  RH WIND       PRES   REMARKS
OCEAN CITY     SUNNY     31  21  66 NE10      30.39R WCI  22
SALISBURY      CLOUDY    34  21  59 N7        30.39R
BAY BRIDGE AP* LGT SNOW  28  21  74 N9        30.42S WCI  20

$$

MDZ017>025-271700-
SOUTHERN MARYLAND

CITY           SKY/WX    TMP DP  RH WIND       PRES   REMARKS
PATUXENT RIVER CLOUDY    32  21  64 NW16      30.39R WCI  21
ST INIGOES     CLOUDY    33  20  58 NW8       30.40R WCI  26
LEONARDTOWN*   CLOUDY    32  19  59 NW6       30.41R

$$

MDZ003>005-271700-
NORTH CENTRAL MARYLAND

CITY           SKY/WX    TMP DP  RH WIND       PRES   REMARKS
FREDERICK*     PTSUNNY   27  12  54 NE10      30.47  WCI  17
HAGERSTOWN APT SUNNY     24   7  48 NW13      30.42R WCI  12
WESTMINSTER*   MOSUNNY   19  10  68 N5        30.40R

$$

MDZ501>502-271700-
WESTERN MARYLAND

CITY           SKY/WX    TMP DP  RH WIND       PRES   REMARKS
OAKLAND*       MOSUNNY   10   9  92 W8        30.26R WCI  -1
CUMBERLAND*    SUNNY     23   5  46 CALM      30.48R

$$

VAZ025>031-271700-
SHENANDOAH VALLEY

CITY           SKY/WX    TMP DP  RH WIND       PRES   REMARKS
WINCHESTER*    SUNNY     28   3  34 NW13      30.42R WCI  18
FRONT ROYAL*   FAIR      27   9  46 N7        30.40R
LURAY*         FAIR      32  18  55 SW5       30.38R
NEW MARKET*    FAIR      26  11  53 E7        30.38R
STAUNTON*      MOSUNNY   29  15  56 NE6       30.37R
WAYNESBORO*    FAIR      29  13  50 SW5       30.32S

$$

WVZ021-048>050-054>055-271700-
EASTERN WEST VIRGINIA PANHANDLE

CITY           SKY/WX    TMP DP  RH WIND       PRES   REMARKS
MARTINSBURG    SUNNY     25   7  46 NW10      30.44R WCI  15
PETERSBURG*    NOT AVBL

$$

VAZ036>039-050-271700-
CENTRAL FOOTHILLS

CITY           SKY/WX    TMP DP  RH WIND       PRES   REMARKS
CHARLOTTESVILL PTSUNNY   34  17  50 NE3       30.36R
CULPEPER*      SUNNY     30  14  51 N12       30.42R WCI  21
ORANGE*        SUNNY     32  18  55 NE8       30.41R WCI  25
GORDONSVILLE*  FAIR      30  16  55 NE8       30.38S WCI  22
WARRENTON*     PTSUNNY   31  18  58 N14       30.42R WCI  21

$$

VAZ055>057-271700-
NORTH AND CENTRAL PIEDMONT

CITY           SKY/WX    TMP DP  RH WIND       PRES   REMARKS
FREDERICKSBRG* CLOUDY    32  16  52 N8        30.42R WCI  24
STAFFORD*      CLOUDY    30  12  46 N12       30.46S WCI  21

$$

NCZ024-NYZ072-PAZ021-071-VAZ022-071-271700-
OTHER REGIONAL OBSERVATIONS

CITY           SKY/WX    TMP DP  RH WIND       PRES   REMARKS
NEW YORK CITY  SUNNY     23   5  46 VRB5      30.42R
PHILADELPHIA   CLOUDY    26  12  55 NW8       30.43R WCI  18
PITTSBURGH     MOSUNNY    9   1  70 VRB3      30.47R
ROANOKE        PTSUNNY   30  12  47 NW14G23   30.39R WCI  19
RICHMOND       CLOUDY    34  27  75 N10       30.39R WCI  26
RALEIGH        PTSUNNY   40  25  55 VRB5      30.38R

$$

ANZ530>537-271700-
MARINE OBSERVATIONS

STATION/POSITION TIME  TEMP    WIND        PRES
                       AIR SEA DIR/SP/G
                 (UTC) (F)     (DEG/KT/KT) (MB)
THOMAS PT LIGHT  1600   26 31   20/ 15/ 16 1030.9R
BALT KEY BRIDGE  1500   27     350/ 10/ 11 1029.9R
COVE POINT       1500   28     350/  8/  9 1028.8R
LEWISETTA        1500   28 31              1028.9R
SOLOMONS ISLAND  1500      32                N/A

$$



USA.gov is the U.S. government's official web portal to all federal, state and local government web resources and services.